Change the Weather History Date:

Wednesday, May 1, 2013

  Actual Average Record
Temperature  
Mean Temperature 52 °F -  
Max Temperature 71 °F 71 °F 94 °F (1965)
Min Temperature 33 °F 45 °F 31 °F (1967)
Degree Days  
Heating Degree Days 13    
Growing Degree Days 2 (Base 50)    
Moisture  
Dew Point 38 °F    
Average Humidity 71    
Maximum Humidity 81    
Minimum Humidity 46    
Precipitation  
Precipitation 0.00 in - - ()
Sea Level Pressure  
Sea Level Pressure 30.05 in    
Wind  
Wind Speed 25 mph (NNE)    
Max Wind Speed 40 mph    
Max Gust Speed 50 mph    
Visibility 9 miles    
Events      
Averages and records for this station are not official NWS values.
T = Trace of Precipitation, MM = Missing Value Source: NWS Daily Summary

Daily Weather History Graph

Daily Weather History Graph

Search for Another Location

Airport or City:

Trip Planner

Search our weather history database for the weather conditions in past years. The results will help you decide how hot, cold, wet, or windy it might be!

Date:

Astronomy

May. 01, 2013 Rise Set
Actual Time 6:49 AM CDT 8:33 PM CDT
Civil Twilight 6:21 AM CDT 9:01 PM CDT
Nautical Twilight 5:47 AM CDT 9:35 PM CDT
Astronomical Twilight 5:11 AM CDT 10:11 PM CDT
Moon 1:43 AM CDT (5/1) 12:29 PM CDT (5/1)
Length of Visible Light 14h 40m
Length of Day
13h 44m
Waning Gibbous, 59% of the Moon is Illuminated
May 1
Waning Gibbous
May 2
Last Quarter
May 9
New
May 17
First Quarter
May 24
Full

Hourly Weather History & Observations

Time (CDT) Temp. Windchill Dew Point Humidity Pressure Visibility Wind Dir Wind Speed Gust Speed Precip Events Conditions
12:15 AM 71.6 °F - 50.0 °F 46% 29.64 in 10.0 mi SSE 23.0 mph 33.4 mph N/A   Clear
12:35 AM 69.8 °F - 51.8 °F 53% 29.64 in 10.0 mi SSE 21.9 mph 33.4 mph N/A   Clear
12:55 AM 69.8 °F - 51.8 °F 53% 29.64 in 10.0 mi SSE 20.7 mph 31.1 mph N/A   Clear
1:15 AM 68.0 °F - 51.8 °F 56% 29.64 in 10.0 mi SSE 21.9 mph 31.1 mph N/A   Clear
1:35 AM 66.2 °F - 53.6 °F 64% 29.65 in 10.0 mi SSE 23.0 mph 28.8 mph N/A   Clear
1:55 AM 66.2 °F - 53.6 °F 64% 29.66 in 10.0 mi SSE 20.7 mph 26.5 mph N/A   Clear
2:15 AM 66.2 °F - 53.6 °F 64% 29.65 in 10.0 mi SSE 20.7 mph 32.2 mph N/A   Clear
2:35 AM 64.4 °F - 51.8 °F 64% 29.65 in 10.0 mi SSE 20.7 mph 27.6 mph N/A   Clear
2:55 AM 64.4 °F - 51.8 °F 64% 29.65 in 10.0 mi South 19.6 mph 23.0 mph N/A   Clear
3:15 AM 64.4 °F - 51.8 °F 64% 29.66 in 10.0 mi SSE 19.6 mph 23.0 mph N/A   Clear
3:35 AM 64.4 °F - 51.8 °F 64% 29.68 in 10.0 mi SSE 17.3 mph 21.9 mph N/A   Clear
3:55 AM 64.4 °F - 53.6 °F 68% 29.70 in 10.0 mi South 10.4 mph - N/A   Partly Cloudy
4:15 AM 64.4 °F - 53.6 °F 68% 29.72 in 10.0 mi South 8.1 mph - N/A   Scattered Clouds
4:35 AM 64.4 °F - 51.8 °F 64% 29.72 in 10.0 mi SE 6.9 mph - N/A   Scattered Clouds
5:15 AM 62.6 °F - 51.8 °F 68% 29.73 in 10.0 mi East 10.4 mph - N/A   Clear
5:35 AM 62.6 °F - 51.8 °F 68% 29.73 in 10.0 mi East 13.8 mph - N/A   Clear
5:55 AM 62.6 °F - 51.8 °F 68% 29.76 in 10.0 mi NE 12.7 mph - N/A   Clear
6:15 AM 60.8 °F - 51.8 °F 72% 29.78 in 10.0 mi NNE 15.0 mph - N/A   Clear
6:35 AM 53.6 °F - 37.4 °F 54% 29.83 in 9.0 mi North 35.7 mph 46.0 mph N/A   Mostly Cloudy
6:55 AM 51.8 °F - 35.6 °F 54% 29.86 in 9.0 mi North 32.2 mph 46.0 mph N/A   Overcast
7:15 AM 50.0 °F - 35.6 °F 58% 29.89 in 8.0 mi North 38.0 mph 49.5 mph N/A   Overcast
7:35 AM 48.2 °F - 35.6 °F 62% 29.92 in 8.0 mi North 40.3 mph 49.5 mph N/A   Overcast
8:15 AM 46.4 °F 36.0 °F 35.6 °F 66% 29.96 in 10.0 mi North 39.1 mph 44.9 mph N/A   Overcast
8:35 AM 46.4 °F 36.9 °F 35.6 °F 66% 29.98 in 10.0 mi North 32.2 mph 43.7 mph N/A   Overcast
8:55 AM 44.6 °F 33.9 °F 35.6 °F 71% 29.99 in 10.0 mi North 35.7 mph 44.9 mph N/A   Overcast
9:15 AM 44.6 °F 34.1 °F 35.6 °F 71% 30.00 in 10.0 mi North 34.5 mph 46.0 mph N/A   Overcast
9:35 AM 44.6 °F 34.2 °F 37.4 °F 76% 30.02 in 10.0 mi North 33.4 mph 39.1 mph N/A   Overcast
9:55 AM 44.6 °F 34.1 °F 37.4 °F 76% 30.04 in 10.0 mi North 34.5 mph 41.4 mph N/A   Overcast
10:15 AM 42.8 °F 32.7 °F 35.6 °F 76% 30.06 in 8.0 mi North 27.6 mph 43.7 mph N/A   Overcast
10:35 AM 42.8 °F 32.3 °F 35.6 °F 76% 30.07 in 5.0 mi North 29.9 mph 38.0 mph N/A   Overcast
10:55 AM 42.8 °F 32.1 °F 35.6 °F 76% 30.08 in 4.0 mi North 31.1 mph 38.0 mph N/A   Overcast
11:15 AM 42.8 °F 32.3 °F 35.6 °F 76% 30.10 in 5.0 mi NNE 29.9 mph 41.4 mph N/A   Overcast
11:35 AM 42.8 °F 31.4 °F 35.6 °F 76% 30.10 in 8.0 mi NNE 35.7 mph 47.2 mph N/A   Overcast
11:55 AM 44.6 °F 34.6 °F 35.6 °F 71% 30.11 in 10.0 mi NNE 31.1 mph 41.4 mph N/A   Overcast
12:15 PM 42.8 °F 32.7 °F 35.6 °F 76% 30.12 in 9.0 mi North 27.6 mph 35.7 mph N/A   Overcast
12:35 PM 41.0 °F 30.2 °F 33.8 °F 76% 30.13 in 3.0 mi NNE 27.6 mph 38.0 mph N/A   Overcast
1:15 PM 41.0 °F 29.7 °F 33.8 °F 76% 30.14 in 3.0 mi North 31.1 mph 39.1 mph N/A   Overcast
1:35 PM 41.0 °F 29.5 °F 33.8 °F 76% 30.15 in 3.0 mi North 32.2 mph 42.6 mph N/A   Overcast
1:55 PM 41.0 °F 29.1 °F 33.8 °F 76% 30.15 in 5.0 mi NNE 34.5 mph 40.3 mph N/A   Overcast
2:15 PM 41.0 °F 30.5 °F 33.8 °F 76% 30.18 in 9.0 mi NNE 26.5 mph 38.0 mph N/A   Overcast
2:35 PM 41.0 °F 29.7 °F 33.8 °F 76% 30.18 in 8.0 mi North 31.1 mph 39.1 mph N/A   Overcast
2:55 PM 41.0 °F 29.1 °F 33.8 °F 76% 30.18 in 8.0 mi NNE 34.5 mph 42.6 mph N/A   Overcast
3:15 PM 41.0 °F 29.3 °F 33.8 °F 76% 30.18 in 9.0 mi NNE 33.4 mph 40.3 mph N/A   Overcast
3:35 PM 41.0 °F 29.1 °F 33.8 °F 76% 30.20 in 9.0 mi North 34.5 mph 40.3 mph N/A   Overcast
3:55 PM - - - N/A% 30.20 in 10.0 mi NNE 29.9 mph 40.3 mph N/A   Overcast
4:15 PM 41.0 °F 30.0 °F 32.0 °F 70% 30.20 in 8.0 mi North 28.8 mph 38.0 mph N/A   Overcast
4:35 PM 39.2 °F 27.6 °F 32.0 °F 75% 30.21 in 5.0 mi NNE 28.8 mph 38.0 mph N/A   Overcast
4:55 PM 39.2 °F 27.0 °F 33.8 °F 81% 30.21 in 5.0 mi NNE 32.2 mph 36.8 mph N/A   Overcast
5:15 PM 39.2 °F 27.4 °F 32.0 °F 75% 30.21 in 10.0 mi NNE 29.9 mph 36.8 mph N/A   Overcast
5:35 PM 39.2 °F 27.8 °F 32.0 °F 75% 30.23 in 10.0 mi NNE 27.6 mph 38.0 mph N/A   Overcast
5:55 PM 39.2 °F 27.6 °F 32.0 °F 75% 30.23 in 10.0 mi NNE 28.8 mph 38.0 mph N/A   Overcast
6:15 PM 39.2 °F 27.8 °F 30.2 °F 70% 30.24 in 10.0 mi NNE 27.6 mph 39.1 mph N/A   Overcast
6:35 PM 39.2 °F 27.8 °F 30.2 °F 70% 30.27 in 7.0 mi North 27.6 mph 39.1 mph N/A   Overcast
6:55 PM 37.4 °F 25.4 °F 30.2 °F 75% 30.28 in 6.0 mi North 27.6 mph 38.0 mph N/A   Overcast
7:15 PM 37.4 °F 25.9 °F 30.2 °F 75% 30.28 in 9.0 mi North 25.3 mph 39.1 mph N/A   Overcast
7:35 PM 37.4 °F 24.8 °F 30.2 °F 75% 30.29 in 4.0 mi North 31.1 mph 39.1 mph N/A   Overcast
7:55 PM 37.4 °F 24.8 °F 30.2 °F 75% 30.31 in 8.0 mi North 31.1 mph 39.1 mph N/A   Overcast
8:35 PM 35.6 °F 21.7 °F 30.2 °F 81% 30.33 in 8.0 mi North 34.5 mph 40.3 mph N/A   Overcast
8:55 PM - - - N/A% 30.34 in 10.0 mi NNE 31.1 mph 40.3 mph N/A   Overcast
9:35 PM 35.6 °F 23.2 °F 28.4 °F 75% 30.37 in 10.0 mi NNE 26.5 mph 38.0 mph N/A   Overcast
9:55 PM 35.6 °F 22.5 °F 28.4 °F 75% 30.38 in 8.0 mi North 29.9 mph 33.4 mph N/A   Overcast
10:15 PM 33.8 °F 20.1 °F 28.4 °F 81% 30.41 in 10.0 mi North 29.9 mph 36.8 mph N/A   Overcast
10:35 PM 33.8 °F 21.0 °F 28.4 °F 81% 30.42 in 10.0 mi North 25.3 mph 36.8 mph N/A   Overcast
10:55 PM 33.8 °F 20.8 °F 28.4 °F 81% 30.42 in 10.0 mi North 26.5 mph 40.3 mph N/A   Overcast
11:15 PM 33.8 °F 20.8 °F 28.4 °F 81% 30.42 in 10.0 mi North 26.5 mph 36.8 mph N/A   Overcast
11:35 PM 33.8 °F 21.6 °F 28.4 °F 81% 30.44 in 8.0 mi North 23.0 mph 29.9 mph N/A   Overcast
11:55 PM 33.8 °F 19.6 °F 26.6 °F 75% 30.43 in 10.0 mi North 32.2 mph 38.0 mph N/A   Overcast